�������l�o���
Date,Time,MP-1(��Sv/h),MP-2(��Sv/h),MP-3(��Sv/h),MP-4(��Sv/h),MP-5(��Sv/h),MP-6(��Sv/h),MP-7(��Sv/h),MP-8(��Sv/h),����,����(m/s),���J
2018/12/26,00:00,0.780,1.159,0.815,1.487,1.057,0.452,0.797,0.754,�쐼,4.1,��
2018/12/26,00:10,0.780,1.159,0.817,1.490,1.059,0.452,0.798,0.757,��,3.7,��
2018/12/26,00:20,0.779,1.161,0.816,1.488,1.058,0.453,0.799,0.755,���쐼,4.9,��
2018/12/26,00:30,0.777,1.158,0.815,1.488,1.057,0.453,0.796,0.754,�쐼,5.3,��
2018/12/26,00:40,0.779,1.161,0.815,1.489,1.057,0.452,0.799,0.754,�쐼,5.2,��
2018/12/26,00:50,0.779,1.158,0.815,1.488,1.057,0.453,0.797,0.756,���쐼,5.8,��
2018/12/26,01:00,0.779,1.161,0.818,1.488,1.057,0.451,0.796,0.755,���쐼,5.8,��
2018/12/26,01:10,0.778,1.158,0.815,1.489,1.055,0.451,0.798,0.755,���쐼,6.2,��
2018/12/26,01:20,0.779,1.159,0.815,1.489,1.056,0.452,0.798,0.757,�쐼,5.0,��
2018/12/26,01:30,0.778,1.160,0.815,1.489,1.058,0.450,0.797,0.756,�쐼,3.5,��
2018/12/26,01:40,0.778,1.159,0.813,1.490,1.056,0.451,0.795,0.754,�쐼,3.1,��
2018/12/26,01:50,0.779,1.159,0.816,1.486,1.056,0.452,0.799,0.754,���쐼,4.1,��
2018/12/26,02:00,0.781,1.160,0.815,1.489,1.055,0.452,0.798,0.755,�쐼,6.3,��
2018/12/26,02:10,0.780,1.160,0.816,1.487,1.055,0.451,0.798,0.754,�쐼,7.0,��
2018/12/26,02:20,0.780,1.159,0.814,1.490,1.056,0.450,0.796,0.757,�쐼,6.3,��
2018/12/26,02:30,0.779,1.161,0.815,1.486,1.055,0.451,0.798,0.756,�쐼,6.0,��
2018/12/26,02:40,0.779,1.160,0.816,1.490,1.057,0.452,0.796,0.755,�쐼,6.6,��
2018/12/26,02:50,0.778,1.158,0.817,1.491,1.057,0.452,0.796,0.754,�쐼,5.5,��
2018/12/26,03:00,0.778,1.161,0.818,1.489,1.056,0.452,0.796,0.755,�쐼,5.4,��
2018/12/26,03:10,0.780,1.160,0.815,1.491,1.057,0.452,0.797,0.755,�쐼,4.5,��
2018/12/26,03:20,0.779,1.160,0.815,1.489,1.053,0.452,0.798,0.756,��쐼,4.2,��
2018/12/26,03:30,0.782,1.158,0.816,1.488,1.055,0.451,0.796,0.757,���쐼,2.9,��
2018/12/26,03:40,0.780,1.159,0.815,1.489,1.054,0.452,0.797,0.757,���쐼,4.5,��
2018/12/26,03:50,0.782,1.160,0.816,1.491,1.055,0.452,0.797,0.756,���쐼,5.1,��
2018/12/26,04:00,0.779,1.159,0.817,1.491,1.058,0.452,0.798,0.756,���쐼,6.2,��
2018/12/26,04:10,0.780,1.162,0.817,1.491,1.054,0.453,0.797,0.754,���쐼,7.0,��
2018/12/26,04:20,0.779,1.156,0.819,1.491,1.055,0.453,0.799,0.755,���쐼,6.0,��
2018/12/26,04:30,0.781,1.160,0.817,1.490,1.058,0.453,0.799,0.759,�쐼,6.6,��
2018/12/26,04:40,0.781,1.158,0.818,1.492,1.056,0.454,0.800,0.757,���쐼,6.5,��
2018/12/26,04:50,0.780,1.162,0.819,1.490,1.056,0.453,0.800,0.756,�쐼,6.4,��
2018/12/26,05:00,0.782,1.159,0.818,1.492,1.058,0.453,0.799,0.757,��쐼,7.0,��
2018/12/26,05:10,0.779,1.160,0.818,1.490,1.057,0.453,0.800,0.756,�쐼,4.6,��
2018/12/26,05:20,0.782,1.161,0.818,1.490,1.058,0.453,0.800,0.757,�쐼,4.6,��
2018/12/26,05:30,0.780,1.161,0.820,1.492,1.058,0.452,0.798,0.757,�쐼,6.0,��
2018/12/26,05:40,0.780,1.159,0.819,1.491,1.057,0.453,0.800,0.757,���쐼,7.2,��
2018/12/26,05:50,0.778,1.161,0.818,1.491,1.057,0.454,0.800,0.756,���쐼,6.5,��
2018/12/26,06:00,0.782,1.159,0.817,1.491,1.056,0.453,0.803,0.756,���쐼,7.1,��
2018/12/26,06:10,0.781,1.160,0.819,1.490,1.058,0.453,0.800,0.756,���쐼,7.8,��
2018/12/26,06:20,0.780,1.162,0.818,1.493,1.059,0.453,0.799,0.756,���쐼,8.1,��
2018/12/26,06:30,0.779,1.161,0.820,1.489,1.060,0.454,0.798,0.755,���쐼,8.1,��
2018/12/26,06:40,0.779,1.161,0.818,1.490,1.057,0.453,0.801,0.756,��,7.1,��
2018/12/26,06:50,0.780,1.161,0.819,1.492,1.058,0.453,0.801,0.757,���쐼,6.5,��
2018/12/26,07:00,0.781,1.161,0.818,1.490,1.056,0.454,0.800,0.757,���쐼,5.0,��
2018/12/26,07:10,0.781,1.160,0.816,1.488,1.055,0.454,0.801,0.757,��,3.5,��
2018/12/26,07:20,0.780,1.160,0.819,1.491,1.056,0.453,0.799,0.756,���k��,3.3,��
2018/12/26,07:30,0.779,1.157,0.817,1.490,1.056,0.453,0.799,0.756,���k��,3.9,��
2018/12/26,07:40,0.779,1.158,0.817,1.490,1.056,0.454,0.799,0.756,���k��,5.7,��
2018/12/26,07:50,0.781,1.161,0.817,1.491,1.056,0.454,0.796,0.755,���k��,6.1,��
2018/12/26,08:00,0.780,1.157,0.818,1.492,1.058,0.455,0.799,0.756,���k��,5.6,��
2018/12/26,08:10,0.779,1.161,0.818,1.493,1.058,0.451,0.800,0.757,���k��,5.1,��
2018/12/26,08:20,0.780,1.160,0.819,1.492,1.057,0.454,0.799,0.755,���k��,5.4,��
2018/12/26,08:30,0.781,1.155,0.815,1.492,1.057,0.453,0.800,0.757,���k��,4.9,��
2018/12/26,08:40,0.781,1.157,0.816,1.492,1.057,0.453,0.798,0.755,�k��,4.2,��
2018/12/26,08:50,0.780,1.156,0.818,1.490,1.055,0.453,0.798,0.758,�k��,4.0,��
2018/12/26,09:00,0.780,1.155,0.816,1.491,1.059,0.453,0.797,0.756,���k��,5.0,��
2018/12/26,09:10,0.778,1.157,0.819,1.489,1.058,0.453,0.797,0.755,���k��,5.7,��
2018/12/26,09:20,0.780,1.155,0.817,1.492,1.057,0.454,0.798,0.755,���k��,7.1,��
2018/12/26,09:30,0.780,1.156,0.815,1.490,1.054,0.453,0.799,0.756,���k��,6.4,��
2018/12/26,09:40,0.781,1.154,0.816,1.486,1.032,0.453,0.801,0.756,���k��,5.4,��
2018/12/26,09:50,0.782,1.155,0.817,1.485,1.037,0.453,0.798,0.758,��,4.1,��
2018/12/26,10:00,0.781,1.155,0.817,1.485,1.023,0.454,0.798,0.757,���k��,4.3,��
2018/12/26,10:10,0.781,1.155,0.818,1.485,1.041,0.453,0.797,0.756,��,3.1,��
2018/12/26,10:20,0.780,1.153,0.818,1.487,1.032,0.450,0.798,0.756,-,-,��
2018/12/26,10:30,0.781,1.155,0.817,1.486,1.044,0.447,0.797,0.756,-,-,��
2018/12/26,10:40,0.780,1.152,0.820,1.486,1.058,0.450,0.798,0.757,-,-,��
2018/12/26,10:50,0.781,1.152,0.818,1.485,1.059,0.453,0.798,0.757,-,-,��
2018/12/26,11:00,0.783,1.152,0.819,1.487,1.059,0.454,0.796,0.757,-,-,��
2018/12/26,11:10,0.783,1.151,0.819,1.488,1.062,0.454,0.796,0.757,-,-,��
2018/12/26,11:20,0.782,1.154,0.818,1.487,1.059,0.453,0.799,0.756,-,-,��
2018/12/26,11:30,0.783,1.156,0.818,1.491,1.061,0.453,0.797,0.758,-,-,��
2018/12/26,11:40,0.784,1.155,0.820,1.493,1.061,0.454,0.798,0.758,-,-,��
2018/12/26,11:50,0.782,1.159,0.819,1.492,1.060,0.454,0.800,0.758,-,-,��
2018/12/26,12:00,0.784,1.161,0.820,1.491,1.059,0.453,0.798,0.758,-,-,��
2018/12/26,12:10,0.785,1.158,0.820,1.492,1.061,0.454,0.799,0.758,-,-,��
2018/12/26,12:20,0.785,1.155,0.820,1.495,1.061,0.454,0.798,0.757,-,-,��
2018/12/26,12:30,0.783,1.156,0.819,1.494,1.059,0.455,0.799,0.758,-,-,��
2018/12/26,12:40,0.784,1.156,0.822,1.490,1.060,0.453,0.797,0.757,-,-,��
2018/12/26,12:50,0.787,1.153,0.820,1.492,1.058,0.454,0.798,0.758,-,-,��
2018/12/26,13:00,0.783,1.155,0.820,1.494,1.061,0.453,0.798,0.758,-,-,��
2018/12/26,13:10,0.780,1.156,0.818,1.492,1.060,0.454,0.799,0.757,-,-,��
2018/12/26,13:20,0.784,1.154,0.819,1.493,1.059,0.455,0.799,0.758,-,-,��
2018/12/26,13:30,0.785,1.152,0.819,1.491,1.061,0.455,0.798,0.759,-,-,��
2018/12/26,13:40,0.784,1.151,0.818,1.493,1.060,0.453,0.800,0.758,-,-,��
2018/12/26,13:50,0.784,1.154,0.818,1.493,1.062,0.454,0.799,0.758,-,-,��
2018/12/26,14:00,0.785,1.153,0.818,1.491,1.062,0.450,0.798,0.759,-,-,��
2018/12/26,14:10,0.783,1.155,0.817,1.493,1.062,0.450,0.798,0.758,-,-,��
2018/12/26,14:20,0.784,1.158,0.820,1.493,1.062,0.447,0.799,0.759,-,-,��
2018/12/26,14:30,0.784,1.160,0.820,1.492,1.062,0.452,0.798,0.759,-,-,��
2018/12/26,14:40,0.784,1.160,0.819,1.494,1.062,0.453,0.799,0.760,-,-,��
2018/12/26,14:50,0.785,1.157,0.820,1.493,1.059,0.454,0.799,0.757,���k��,6.9,��
2018/12/26,15:00,0.783,1.160,0.821,1.495,1.062,0.454,0.800,0.758,���k��,6.5,��
2018/12/26,15:10,0.783,1.160,0.821,1.495,1.062,0.455,0.799,0.759,���k��,4.7,��
2018/12/26,15:20,0.782,1.162,0.820,1.485,1.060,0.455,0.797,0.758,���k��,4.5,��
2018/12/26,15:30,0.785,1.159,0.821,1.494,1.061,0.454,0.799,0.759,���k��,2.8,��
2018/12/26,15:40,0.784,1.161,0.818,1.494,1.059,0.453,0.799,0.758,�k�k��,1.9,��
2018/12/26,15:50,0.782,1.162,0.819,1.493,1.062,0.454,0.798,0.757,�k��,2.9,��
2018/12/26,16:00,0.781,1.163,0.821,1.496,1.060,0.454,0.798,0.757,���k��,4.7,��
2018/12/26,16:10,0.785,1.162,0.819,1.494,1.059,0.454,0.800,0.758,���k��,4.8,��
2018/12/26,16:20,0.782,1.164,0.819,1.494,1.062,0.454,0.799,0.759,���k��,5.1,��
2018/12/26,16:30,0.783,1.165,0.818,1.495,1.063,0.454,0.799,0.758,���k��,4.8,��
2018/12/26,16:40,0.782,1.162,0.816,1.493,1.060,0.454,0.798,0.759,���k��,4.3,��
2018/12/26,16:50,0.784,1.165,0.818,1.492,1.059,0.453,0.799,0.758,���k��,2.6,��
2018/12/26,17:00,0.782,1.164,0.819,1.495,1.063,0.453,0.798,0.758,���쐼,1.7,��
2018/12/26,17:10,0.781,1.164,0.820,1.494,1.060,0.454,0.800,0.755,���k��,4.1,��
2018/12/26,17:20,0.782,1.163,0.819,1.496,1.061,0.453,0.799,0.757,���k��,4.6,��
2018/12/26,17:30,0.781,1.167,0.821,1.494,1.060,0.454,0.799,0.757,�k��,5.1,��
2018/12/26,17:40,0.782,1.163,0.820,1.496,1.060,0.454,0.801,0.759,���k��,3.0,��
2018/12/26,17:50,0.784,1.163,0.820,1.494,1.060,0.454,0.800,0.757,���쐼,2.6,��
2018/12/26,18:00,0.782,1.163,0.818,1.494,1.061,0.454,0.799,0.758,���쐼,2.9,��
2018/12/26,18:10,0.784,1.164,0.821,1.492,1.060,0.454,0.798,0.758,���쐼,2.0,��
2018/12/26,18:20,0.782,1.163,0.818,1.495,1.059,0.453,0.799,0.756,��,2.0,��
2018/12/26,18:30,0.781,1.164,0.819,1.496,1.059,0.454,0.799,0.757,���쐼,1.1,��
2018/12/26,18:40,0.781,1.163,0.820,1.492,1.058,0.453,0.799,0.757,���쐼,1.9,��
2018/12/26,18:50,0.781,1.162,0.818,1.494,1.060,0.452,0.800,0.756,���쐼,2.0,��
2018/12/26,19:00,0.781,1.163,0.819,1.491,1.061,0.453,0.801,0.756,�쐼,2.6,��
2018/12/26,19:10,0.782,1.163,0.819,1.495,1.058,0.453,0.801,0.756,���쐼,0.6,��
2018/12/26,19:20,0.782,1.162,0.818,1.494,1.060,0.455,0.800,0.758,���k��,1.5,��
2018/12/26,19:30,0.783,1.163,0.819,1.496,1.061,0.454,0.800,0.757,��,2.9,��
2018/12/26,19:40,0.782,1.164,0.819,1.493,1.059,0.454,0.800,0.758,��,3.7,��
2018/12/26,19:50,0.782,1.164,0.819,1.495,1.061,0.453,0.800,0.758,��,3.7,��
2018/12/26,20:00,0.784,1.165,0.820,1.493,1.060,0.453,0.802,0.756,��,6.5,��
2018/12/26,20:10,0.781,1.163,0.819,1.495,1.062,0.453,0.799,0.758,��,7.6,��
2018/12/26,20:20,0.783,1.164,0.819,1.494,1.060,0.453,0.800,0.756,��,6.9,��
2018/12/26,20:30,0.783,1.163,0.818,1.493,1.060,0.455,0.800,0.758,��,7.8,��
2018/12/26,20:40,0.782,1.166,0.818,1.493,1.062,0.453,0.797,0.759,���쐼,6.6,��
2018/12/26,20:50,0.783,1.164,0.818,1.494,1.062,0.454,0.800,0.758,���쐼,6.5,��
2018/12/26,21:00,0.783,1.163,0.819,1.493,1.061,0.454,0.799,0.757,���쐼,6.8,�L
2018/12/26,21:10,0.784,1.162,0.818,1.496,1.061,0.455,0.800,0.757,��,6.4,�L
2018/12/26,21:20,0.784,1.165,0.819,1.495,1.061,0.454,0.801,0.758,��,7.5,�L
2018/12/26,21:30,0.783,1.165,0.819,1.495,1.061,0.455,0.799,0.757,��,8.3,�L
2018/12/26,21:40,0.784,1.165,0.821,1.494,1.061,0.454,0.800,0.758,��,8.2,�L
2018/12/26,21:50,0.783,1.165,0.819,1.495,1.062,0.456,0.801,0.757,��,8.2,�L
2018/12/26,22:00,0.782,1.164,0.820,1.494,1.064,0.453,0.800,0.757,���쐼,9.1,�L
2018/12/26,22:10,0.783,1.160,0.821,1.497,1.063,0.456,0.798,0.757,��,8.1,�L
2018/12/26,22:20,0.784,1.159,0.821,1.494,1.062,0.454,0.800,0.756,��,8.8,�L
2018/12/26,22:30,0.782,1.162,0.823,1.494,1.064,0.455,0.801,0.759,��,10.5,�L
2018/12/26,22:40,0.783,1.161,0.821,1.493,1.061,0.456,0.800,0.757,��,7.3,�L
2018/12/26,22:50,0.783,1.163,0.823,1.497,1.063,0.456,0.799,0.758,��,6.1,�L
2018/12/26,23:00,0.784,1.163,0.822,1.497,1.062,0.456,0.799,0.758,��,5.3,��
2018/12/26,23:10,0.783,1.164,0.823,1.497,1.061,0.455,0.801,0.757,��,3.8,��
2018/12/26,23:20,0.784,1.160,0.821,1.496,1.062,0.456,0.800,0.756,��,3.2,��
2018/12/26,23:30,0.783,1.163,0.821,1.495,1.062,0.457,0.799,0.757,��,4.2,��
2018/12/26,23:40,0.783,1.161,0.821,1.495,1.059,0.455,0.802,0.757,���k��,3.9,��
2018/12/26,23:50,0.783,1.163,0.819,1.494,1.060,0.456,0.801,0.757,���k��,5.2,��
